CW8826 Weather Reports


time (UTC)temp
C
wind
direction
speed
KPH
gust
KPH
rain 1hr
cm
rain 24hr
cm
rain mn
cm
humidity
%
barometer
mb
20260502123016 11 113 8.0 17.7 0.00 0.00 0.00 29 1021.9
20260502122016 11 113 9.7 19.3 0.00 0.00 0.00 28 1022.2
20260502121058 11 113 12.9 19.3 0.00 0.00 0.00 25 1022.3
20260502115036 11 135 6.4 12.9 0.00 0.00 0.00 27 1022.2
20260502114017 11 113 8.0 19.3 0.00 0.00 0.00 28 1022.3
20260502113037 11 113 9.7 24.1 0.00 0.00 0.00 28 1022.2
20260502112016 11 113 12.9 22.5 0.00 0.00 0.00 27 1022.2
20260502111017 11 90 9.7 16.1 0.00 0.00 0.00 29 1022.3
20260502110017 11 135 6.4 14.5 0.00 0.00 0.00 28 1022.3
20260502105017 11 113 12.9 22.5 0.00 0.00 0.00 27 1022.3
20260502104037 12 113 9.7 17.7 0.00 0.00 0.00 25 1022.7
20260502103017 12 68 14.5 27.4 0.00 0.00 0.00 25 1022.3
20260502102016 11 113 8.0 16.1 0.00 0.00 0.00 28 1022.3
20260502101016 11 113 12.9 22.5 0.00 0.00 0.00 28 1022.3
20260502091017 11 113 9.7 24.1 0.00 0.00 0.00 29 1022.2
20260502071017 10 90 17.7 25.7 0.00 0.00 0.00 31 1021.8
20260502070017 10 90 16.1 22.5 0.00 0.00 0.00 33 1021.5
20260502065016 10 135 8.0 16.1 0.00 0.00 0.00 32 1021.3
20260502064017 10 113 12.9 24.1 0.00 0.00 0.00 31 1021.2
20260502063037 11 113 8.0 19.3 0.00 0.00 0.00 29 1021.5
20260502062017 11 113 12.9 22.5 0.00 0.00 0.00 27 1021.0
20260502061017 11 113 17.7 27.4 0.00 0.00 0.00 30 1021.1
20260502060017 10 113 4.8 11.3 0.00 0.00 0.00 33 1020.7
20260502055017 10 113 11.3 25.7 0.00 0.00 0.00 36 1020.7
20260502054018 10 90 16.1 25.7 0.00 0.00 0.00 36 1020.7
20260502053017 10 113 16.1 22.5 0.00 0.00 0.00 38 1020.7
20260502052017 10 113 16.1 25.7 0.00 0.00 0.00 38 1020.4
20260502051017 11 113 16.1 25.7 0.00 0.00 0.00 38 1020.5
20260502050017 12 90 16.1 27.4 0.00 0.00 0.00 36 1020.5
20260502045017 11 113 12.9 20.9 0.00 0.00 0.00 42 1020.2
20260502044017 11 113 11.3 22.5 0.00 0.00 0.00 42 1020.2
20260502043039 12 113 4.8 12.9 0.00 0.00 0.00 40 1020.6
20260502042018 12 113 8.0 16.1 0.00 0.00 0.00 39 1020.2
20260502041018 12 90 16.1 25.7 0.00 0.00 0.00 39 1019.8
20260502040038 12 90 17.7 27.4 0.00 0.00 0.00 42 1019.8
20260502035037 12 90 14.5 29.0 0.00 0.00 0.00 41 1019.7
20260502034017 12 90 14.5 22.5 0.00 0.00 0.00 42 1019.6
20260502033018 12 113 14.5 22.5 0.00 0.00 0.00 40 1019.4
20260502032017 12 113 12.9 20.9 0.00 0.00 0.00 41 1018.6
20260502031018 12 113 11.3 17.7 0.00 0.00 0.00 43 1018.5
20260502030038 12 113 6.4 12.9 0.00 0.00 0.00 41 1018.4
20260502025017 13 113 4.8 9.7 0.00 0.00 0.00 37 1018.2
20260502024017 13 113 6.4 12.9 0.00 0.00 0.00 38 1018.5
20260502023037 14 225 1.6 6.4 0.00 0.00 0.00 35 1018.4
20260502022018 15 338 1.6 4.8 0.00 0.00 0.00 33 1018.6
20260502021017 15 315 1.6 4.8 0.00 0.00 0.00 33 1018.4
20260502020017 16 315 3.2 11.3 0.00 0.00 0.00 31 1018.7
20260502015019 16 315 6.4 12.9 0.00 0.00 0.00 30 1018.6
20260502014017 16 315 6.4 14.5 0.00 0.00 0.00 30 1018.5
20260502013018 16 315 6.4 12.9 0.00 0.00 0.00 31 1018.6
20260502012015 16 315 6.4 16.1 0.00 0.00 0.00 29 1018.5
20260502011018 17 315 6.4 14.5 0.00 0.00 0.00 30 1018.6
20260502010017 17 315 6.4 12.9 0.00 0.00 0.00 28 1018.5
20260502005058 17 315 6.4 14.5 0.00 0.00 0.00 30 1019.0
20260502004017 17 315 9.7 16.1 0.00 0.00 0.00 29 1019.0
20260502003017 17 315 4.8 11.3 0.00 0.00 0.00 29 1018.9
20260502002017 17 315 8.0 14.5 0.00 0.00 0.00 30 1019.2
20260502001018 17 315 6.4 16.1 0.00 0.00 0.00 29 1019.3
20260502000017 17 0 9.7 19.3 0.00 0.00 0.00 29 1019.4
20260501235017 17 315 9.7 17.7 0.00 0.00 0.00 29 1019.3
20260501234017 17 315 8.0 20.9 0.00 0.00 0.00 28 1019.4
20260501233017 17 315 9.7 19.3 0.00 0.00 0.00 27 1019.7
20260501232017 17 315 8.0 20.9 0.00 0.00 0.00 27 1019.6
20260501231018 17 315 8.0 20.9 0.00 0.00 0.00 26 1019.8
20260501230017 17 315 6.4 16.1 0.00 0.00 0.00 26 1019.8
20260501225017 17 315 8.0 16.1 0.00 0.00 0.00 27 1019.9
20260501224038 17 315 8.0 16.1 0.00 0.00 0.00 27 1020.0
20260501223017 17 315 9.7 17.7 0.00 0.00 0.00 28 1020.1
20260501222017 17 315 8.0 17.7 0.00 0.00 0.00 27 1020.2
20260501221017 17 315 4.8 17.7 0.00 0.00 0.00 26 1020.2
20260501220037 17 315 6.4 14.5 0.00 0.00 0.00 27 1020.4
20260501215017 17 315 6.4 16.1 0.00 0.00 0.00 25 1020.5
20260501214017 17 270 9.7 22.5 0.00 0.00 0.00 25 1020.6
20260501213018 17 315 8.0 12.9 0.00 0.00 0.00 26 1020.8
20260501212017 16 338 8.0 20.9 0.00 0.00 0.00 26 1020.8
20260501211017 17 270 8.0 17.7 0.00 0.00 0.00 25 1020.8
20260501210037 17 338 4.8 19.3 0.00 0.00 0.00 25 1020.8
20260501205038 17 315 8.0 19.3 0.00 0.00 0.00 25 1021.1
20260501204017 16 248 3.2 8.0 0.00 0.00 0.00 22 1020.7
20260501203017 16 315 6.4 14.5 0.00 0.00 0.00 23 1020.9
20260501202017 16 315 8.0 20.9 0.00 0.00 0.00 23 1020.9
20260501201037 16 315 6.4 14.5 0.00 0.00 0.00 22 1020.9
20260501200017 16 315 6.4 12.9 0.00 0.00 0.00 24 1020.9
20260501195018 16 315 8.0 16.1 0.00 0.00 0.00 22 1021.0
20260501194017 16 315 8.0 14.5 0.00 0.00 0.00 22 1021.0
20260501193018 16 270 6.4 11.3 0.00 0.00 0.00 23 1021.1
20260501192018 16 293 4.8 12.9 0.00 0.00 0.00 24 1021.1
20260501191017 16 270 6.4 20.9 0.00 0.00 0.00 25 1021.2
20260501190017 16 45 4.8 12.9 0.00 0.00 0.00 23 1021.2
20260501185017 15 45 4.8 12.9 0.00 0.00 0.00 23 1021.2
20260501184018 15 315 4.8 12.9 0.00 0.00 0.00 25 1021.4
20260501183017 15 315 4.8 12.9 0.00 0.00 0.00 26 1021.1
20260501182017 15 315 9.7 17.7 0.00 0.00 0.00 26 1021.6
20260501181038 14 248 4.8 14.5 0.00 0.00 0.00 27 1021.3
20260501180037 14 315 8.0 17.7 0.00 0.00 0.00 26 1021.3
20260501175017 14 23 8.0 19.3 0.00 0.00 0.00 27 1021.3
20260501174138 13 315 9.7 17.7 0.00 0.00 0.00 29 1021.5
20260501173017 13 0 9.7 22.5 0.00 0.00 0.00 29 1021.7
20260501172017 13 338 9.7 17.7 0.00 0.00 0.00 29 1021.4
20260501171017 13 23 9.7 24.1 0.00 0.00 0.00 30 1021.4
20260501170017 12 23 11.3 22.5 0.00 0.00 0.00 31 1021.6
20260501165037 12 23 12.9 25.7 0.00 0.00 0.00 32 1021.6
20260501164017 12 45 12.9 27.4 0.00 0.00 0.00 32 1021.7
20260501163038 12 113 4.8 14.5 0.00 0.00 0.00 34 1021.9
20260501162017 12 68 4.8 12.9 0.00 0.00 0.00 35 1021.5
20260501161037 11 248 3.2 6.4 0.00 0.00 0.00 40 1021.7
20260501160018 11 248 1.6 6.4 0.00 0.00 0.00 41 1021.5
20260501155017 10 248 4.8 11.3 0.00 0.00 0.00 41 1021.6
20260501154018 10 248 4.8 9.7 0.00 0.00 0.00 41 1021.6
20260501153017 10 135 1.6 4.8 0.00 0.00 0.00 42 1021.3
20260501152017 9 135 3.2 4.8 0.00 0.00 0.00 45 1021.0
20260501151037 8 135 3.2 4.8 0.00 0.00 0.00 47 1021.0